[[{"header":{"parameterUnit":"m.s-1","parameterCategory":1,"la1":30.2991,"la2":30.254,"lo1":-89.0895,"lo2":-89.0444,"dy":0.0017,"dx":0.0017,"nx":28,"ny":28,"refTime":"2023-07-25T03:00:00:Z","depth":0,"parameterNumber":2,"parameterNumberName":"U-component_of_WINDS"},"data":[0,0,0,0,0,0,0,0,0,0,0,0,0,0,0,0,0,0,0,0,0,0,0,0,0,0,0,0,0,0,0,0,0,0,0,0,0,0,0,0,0,0,0,0,0,0,0,0,0,0,0,0,0,0,0,0,0,0,0.3181,0.3183,0,0.3301,0.3302,0.3304,0.3361,0.336,0.336,0.336,0.3489,0.3492,0.3496,0,0,0,0,0,0,0,0,0,0,0,0,0,0.3009,0.3012,0.3181,0.3183,0.3184,0.3301,0.3302,0.3304,0.3361,0.336,0.336,0.336,0.3488,0.3492,0.3496,0,0,0,0,0,0,0,0,0,0,0,0,0,0.3102,0.3012,0.3181,0.3226,0.3232,0.33,0.3302,0.3304,0.3361,0.336,0.336,0.336,0.3486,0.3491,0.3497,0.3531,0,0,0.3513,0.3515,0,0,0,0,0,0,0,0,0.3096,0.3108,0.3218,0.3223,0.3229,0.3315,0.3289,0.3381,0.3361,0.3312,0.336,0.336,0.3432,0.3441,0.3464,0.3537,0.3543,0.3513,0.3516,0.3518,0.352,0,0,0,0,0,0,0,0.309,0.3103,0.3229,0.322,0.3227,0.3243,0.3256,0.3306,0.3371,0.3316,0.332,0.3333,0.3435,0.3459,0.3468,0.3544,0.3513,0.3518,0.3521,0.3523,0.3653,0.3654,0,0,0,0,0,0,0.3075,0.3097,0.3225,0.3232,0.3161,0.3246,0.3261,0.3288,0.3371,0.3383,0.3333,0.3336,0.345,0.3462,0.3472,0.3519,0.3518,0.3523,0.3526,0.3653,0.3653,0.3654,0,0,0,0,0,0,0.3071,0.3086,0.322,0.3166,0.3184,0.3249,0.3279,0.329,0.3315,0.3384,0.3396,0.3346,0.3451,0.3465,0.3516,0.3524,0.3526,0.353,0.3653,0.3653,0.3654,0.3612,0,0,0,0,0,0,0.3066,0.3084,0.3096,0.3166,0.3187,0.3259,0.328,0.3293,0.3323,0.3327,0.3399,0.3411,0.3452,0.3508,0.3521,0.3532,0.3535,0.3652,0.3653,0.3653,0.3613,0.3611,0.3609,0,0,0,0,0,0.3059,0.3081,0.3096,0.3111,0.3203,0.326,0.3272,0.3317,0.3323,0.3337,0.3382,0.3408,0.3521,0.3513,0.3528,0.354,0.3652,0.3653,0.3653,0.3614,0.3611,0.3609,0,0,0,0,0,0,0.3013,0.3091,0.3109,0.3153,0.3199,0.3269,0.3288,0.3313,0.336,0.3362,0.3418,0.3434,0.348,0.3515,0.3504,0.3579,0.3589,0.3593,0.3554,0.3552,0.355,0.3541,0.3539,0,0,0,0,0,0.3007,0.3044,0.3111,0.3144,0.3166,0.3223,0.3249,0.328,0.3331,0.3351,0.3399,0.3449,0.3496,0.3526,0.3573,0.3618,0.3636,0.3634,0.3632,0.3631,0.3634,0.3662,0.3662,0.3656,0.3656,0.3656,0,0,0.2996,0.3044,0.3064,0.3136,0.3175,0.3214,0.3239,0.328,0.331,0.3358,0.3408,0.3446,0.3506,0.3554,0.3578,0.3585,0.3639,0.3632,0.363,0.3634,0.3662,0.3663,0.3663,0.3657,0.3657,0.3657,0,0,0.2997,0.3036,0.3068,0.3106,0.3165,0.3203,0.321,0.3277,0.3303,0.3354,0.3391,0.3429,0.3508,0.355,0.3581,0.3598,0.3625,0.3612,0.3603,0.363,0.363,0.3631,0.3638,0.364,0.3615,0.3615,0.3615,0,0.2978,0.3036,0.3081,0.312,0.3151,0.3194,0.3228,0.3264,0.3336,0.3357,0.3364,0.3464,0.3508,0.3567,0.3571,0.3595,0.3607,0.3605,0.3626,0.3627,0.3629,0.3636,0.3639,0.3613,0.3613,0.3613,0.3614,0,0.301,0.305,0.3069,0.3135,0.3168,0.3204,0.3257,0.3286,0.3313,0.3351,0.3404,0.3457,0.3516,0.3532,0.3561,0.3596,0.3599,0.3615,0.3627,0.3626,0.3635,0.3638,0.361,0.3611,0.3611,0.3612,0,0,0.2985,0.3075,0.3081,0.3112,0.318,0.3213,0.3252,0.3307,0.3332,0.338,0.3415,0.3481,0.3497,0.3532,0.3566,0.3589,0.3601,0.3603,0.3605,0.3601,0.3644,0.3632,0.3634,0.3618,0.3619,0.362,0.364,0,0.2996,0.3064,0.3107,0.316,0.3198,0.324,0.3275,0.3321,0.3358,0.3398,0.3439,0.3485,0.3502,0.3524,0.3548,0.3594,0.361,0.3593,0.3654,0.3655,0.3638,0.3639,0.3626,0.3642,0.3643,0.3644,0.3644,0,0.3018,0.3063,0.3119,0.3183,0.3201,0.323,0.3285,0.3322,0.3377,0.3402,0.3442,0.3475,0.352,0.3528,0.3592,0.3579,0.3607,0.3633,0.3635,0.3643,0.365,0.3647,0.3648,0.365,0.3649,0.3649,0.3648,0,0.2995,0.307,0.3113,0.3138,0.3214,0.3234,0.3267,0.3321,0.3352,0.3401,0.3422,0.3476,0.3506,0.3548,0.3596,0.3597,0.3656,0.3667,0.368,0.3678,0.369,0.3689,0.3696,0.3707,0.3707,0.3707,0.3707,0,0.3003,0.3036,0.3104,0.3131,0.317,0.3219,0.3257,0.3293,0.3341,0.3378,0.3418,0.3452,0.3513,0.3555,0.3593,0.3641,0.3654,0.3677,0.3687,0.3674,0.3671,0.3693,0.3694,0.3707,0.3707,0.3707,0.3707,0,0.2984,0.3031,0.3081,0.3148,0.3166,0.3191,0.325,0.3279,0.3317,0.3363,0.3377,0.3438,0.349,0.3541,0.3612,0.3637,0.3685,0.3698,0.3665,0.3671,0.3681,0.3679,0.3703,0.3709,0.3714,0.3714,0.3714,0,0.2987,0.3013,0.3082,0.3108,0.3139,0.3181,0.3213,0.3263,0.3294,0.3359,0.338,0.3434,0.348,0.3561,0.3613,0.3667,0.3683,0.3687,0.3691,0.3677,0.3684,0.3682,0.3685,0.3685,0.3685,0.3685,0.3685,0,0.2986,0.3008,0.305,0.3101,0.3137,0.318,0.3225,0.3245,0.3304,0.3338,0.339,0.3425,0.3496,0.355,0.361,0.3647,0.3676,0.3683,0.3689,0.3676,0.3656,0.3668,0.3661,0.3682,0.3682,0.3683,0.3683,0.3683,0.2979,0.3004,0.3057,0.3103,0.3142,0.3183,0.3213,0.3255,0.3298,0.3358,0.3386,0.3439,0.3494,0.3578,0.3614,0.3658,0.3665,0.3674,0.3676,0.3678,0.3675,0.3648,0.3669,0.3669,0.3669,0.3669,0.3669,0,0.2982,0.3017,0.3059,0.3119,0.3156,0.3179,0.323,0.326,0.3305,0.3353,0.3397,0.3458,0.351,0.3566,0.3623,0.3647,0.3662,0.366,0.3659,0.3667,0.3664,0.3654,0.3647,0.3647,0.3647,0.3647,0.3647,0.3647,0.2987,0.3031,0.3059,0.3124,0.316,0.321,0.3238,0.3276,0.3315,0.338,0.3423,0.3459,0.3511,0.3571,0.3621,0.3637,0.3656,0.3651,0.367,0.3666,0.3668,0.3669,0.3659,0.3654,0.3654,0.367,0.367,0.367]},{"header":{"parameterUnit":"m.s-1","parameterCategory":1,"la1":30.2991,"la2":30.254,"lo1":-89.0895,"lo2":-89.0444,"dy":0.0017,"dx":0.0017,"nx":28,"ny":28,"refTime":"2023-07-25T03:00:00:Z","depth":0,"parameterNumber":3,"parameterNumberName":"V-component_of_WINDS"},"data":[0,0,0,0,0,0,0,0,0,0,0,0,0,0,0,0,0,0,0,0,0,0,0,0,0,0,0,0,0,0,0,0,0,0,0,0,0,0,0,0,0,0,0,0,0,0,0,0,0,0,0,0,0,0,0,0,0,0,-1.4767,-1.4766,0,-1.4743,-1.4743,-1.4743,-1.4683,-1.4681,-1.468,-1.4679,-1.4655,-1.4656,-1.4656,0,0,0,0,0,0,0,0,0,0,0,0,0,-1.4762,-1.4762,-1.4767,-1.4766,-1.4766,-1.4743,-1.4743,-1.4743,-1.4683,-1.4681,-1.468,-1.4678,-1.4655,-1.4656,-1.4656,0,0,0,0,0,0,0,0,0,0,0,0,0,-1.4754,-1.4763,-1.4767,-1.4733,-1.473,-1.4743,-1.4743,-1.4743,-1.4683,-1.4681,-1.4679,-1.4678,-1.4655,-1.4656,-1.4656,-1.47,0,0,-1.4659,-1.4659,0,0,0,0,0,0,0,0,-1.4755,-1.4754,-1.4739,-1.4736,-1.4732,-1.4714,-1.4733,-1.4728,-1.4684,-1.4701,-1.4679,-1.4677,-1.4676,-1.4675,-1.4675,-1.4699,-1.4698,-1.4659,-1.466,-1.466,-1.466,0,0,0,0,0,0,0,-1.4755,-1.4755,-1.4757,-1.4739,-1.4735,-1.4721,-1.4717,-1.4732,-1.47,-1.4699,-1.4695,-1.4693,-1.4674,-1.4674,-1.4674,-1.4697,-1.4659,-1.466,-1.466,-1.4661,-1.4759,-1.4761,0,0,0,0,0,0,-1.476,-1.4756,-1.4758,-1.4757,-1.4739,-1.4722,-1.4719,-1.4722,-1.4699,-1.4694,-1.4695,-1.469,-1.4674,-1.4673,-1.4673,-1.4724,-1.466,-1.4661,-1.4661,-1.4757,-1.476,-1.4762,0,0,0,0,0,0,-1.476,-1.4761,-1.4759,-1.4755,-1.4754,-1.4724,-1.4728,-1.4722,-1.4722,-1.4696,-1.469,-1.4701,-1.4672,-1.4672,-1.4694,-1.4723,-1.4661,-1.4662,-1.4755,-1.4758,-1.4761,-1.4827,0,0,0,0,0,0,-1.4761,-1.4761,-1.4777,-1.4756,-1.4754,-1.478,-1.473,-1.4723,-1.4724,-1.4718,-1.47,-1.4695,-1.4671,-1.4694,-1.4695,-1.4723,-1.4663,-1.4752,-1.4756,-1.476,-1.4822,-1.4832,-1.484,0,0,0,0,0,-1.4761,-1.4796,-1.4778,-1.4778,-1.4773,-1.4782,-1.4781,-1.4752,-1.4726,-1.4742,-1.4726,-1.4696,-1.4719,-1.4696,-1.4698,-1.4726,-1.475,-1.4755,-1.4759,-1.4818,-1.483,-1.484,0,0,0,0,0,0,-1.482,-1.4792,-1.4772,-1.4801,-1.4795,-1.4772,-1.4791,-1.4766,-1.4766,-1.476,-1.4725,-1.4722,-1.475,-1.474,-1.4715,-1.4769,-1.473,-1.4735,-1.4774,-1.4785,-1.4794,-1.4796,-1.4663,0,0,0,0,0,-1.4837,-1.4846,-1.4821,-1.4849,-1.4847,-1.482,-1.4823,-1.4802,-1.4793,-1.479,-1.4775,-1.4768,-1.4774,-1.4779,-1.4783,-1.482,-1.4817,-1.4841,-1.485,-1.4858,-1.4863,-1.4884,-1.4896,-1.4778,-1.4777,-1.4777,0,0,-1.4871,-1.4857,-1.4864,-1.4861,-1.4853,-1.4865,-1.4818,-1.4831,-1.484,-1.4792,-1.4813,-1.4802,-1.4792,-1.4823,-1.4836,-1.4816,-1.4895,-1.4864,-1.487,-1.4871,-1.4891,-1.4902,-1.4912,-1.4781,-1.478,-1.478,0,0,-1.4939,-1.4929,-1.4952,-1.4946,-1.4936,-1.4918,-1.4924,-1.4905,-1.4897,-1.4917,-1.4882,-1.4893,-1.4903,-1.4899,-1.4898,-1.4968,-1.4941,-1.4971,-1.5019,-1.504,-1.505,-1.5058,-1.5085,-1.5095,-1.4976,-1.4976,-1.4976,0,-1.4982,-1.4998,-1.4967,-1.4984,-1.4985,-1.4943,-1.4968,-1.4963,-1.4955,-1.4957,-1.4934,-1.4949,-1.494,-1.497,-1.4988,-1.4988,-1.4995,-1.4972,-1.5051,-1.5059,-1.5066,-1.5091,-1.5101,-1.498,-1.4979,-1.4979,-1.4979,0,-1.5054,-1.5065,-1.5086,-1.508,-1.5083,-1.5103,-1.5077,-1.5084,-1.5064,-1.5049,-1.5072,-1.5059,-1.5061,-1.5067,-1.5046,-1.5096,-1.5084,-1.5057,-1.5017,-1.5081,-1.5105,-1.5114,-1.4985,-1.4984,-1.4983,-1.4982,0,0,-1.5156,-1.5136,-1.5144,-1.5142,-1.5129,-1.5137,-1.5158,-1.516,-1.5168,-1.5164,-1.5181,-1.5193,-1.5169,-1.5168,-1.5147,-1.5166,-1.5225,-1.5136,-1.5136,-1.5155,-1.5281,-1.5303,-1.5314,-1.5207,-1.5209,-1.521,-1.5283,0,-1.5222,-1.5255,-1.5229,-1.5267,-1.5279,-1.5241,-1.5259,-1.5254,-1.5241,-1.525,-1.5236,-1.5246,-1.5212,-1.5212,-1.5229,-1.5214,-1.525,-1.5209,-1.5224,-1.5225,-1.5229,-1.5326,-1.5348,-1.5417,-1.5292,-1.5293,-1.5294,0,-1.5302,-1.5304,-1.5343,-1.533,-1.5334,-1.5351,-1.5353,-1.5361,-1.5356,-1.5345,-1.5346,-1.5321,-1.5342,-1.5303,-1.5332,-1.5304,-1.5309,-1.5304,-1.5306,-1.5306,-1.5264,-1.5331,-1.5438,-1.5449,-1.5308,-1.5307,-1.5306,0,-1.5376,-1.5387,-1.5413,-1.5412,-1.5398,-1.5411,-1.5405,-1.5397,-1.5402,-1.5404,-1.5407,-1.5411,-1.5414,-1.5418,-1.5396,-1.537,-1.5428,-1.5387,-1.5422,-1.5422,-1.5435,-1.5435,-1.5546,-1.5438,-1.5437,-1.5437,-1.5437,0,-1.5452,-1.5478,-1.5446,-1.5462,-1.5491,-1.5463,-1.5492,-1.5483,-1.5477,-1.5492,-1.5459,-1.5473,-1.5442,-1.5454,-1.5437,-1.5465,-1.5465,-1.5459,-1.5454,-1.5462,-1.5463,-1.5465,-1.546,-1.544,-1.5439,-1.5439,-1.5438,0,-1.5538,-1.5518,-1.5544,-1.5529,-1.5526,-1.5548,-1.5536,-1.5551,-1.5537,-1.5556,-1.5559,-1.5537,-1.555,-1.5528,-1.5537,-1.5526,-1.5565,-1.5552,-1.5567,-1.5564,-1.56,-1.5597,-1.5716,-1.5731,-1.5613,-1.5614,-1.5615,0,-1.5588,-1.5608,-1.5596,-1.5604,-1.5601,-1.5613,-1.5618,-1.5592,-1.5598,-1.5595,-1.5611,-1.5621,-1.5628,-1.565,-1.5635,-1.5643,-1.5631,-1.5672,-1.5632,-1.564,-1.5633,-1.5633,-1.5636,-1.5681,-1.5682,-1.5683,-1.5684,0,-1.5681,-1.5671,-1.5679,-1.5685,-1.5692,-1.5695,-1.5696,-1.5704,-1.5677,-1.5687,-1.5699,-1.5705,-1.5716,-1.5727,-1.5732,-1.5727,-1.5702,-1.5697,-1.5706,-1.5715,-1.5723,-1.5721,-1.5591,-1.5694,-1.5693,-1.5693,-1.5692,-1.5692,-1.5751,-1.5768,-1.5763,-1.5774,-1.5773,-1.5775,-1.5789,-1.5779,-1.5789,-1.5796,-1.578,-1.5798,-1.5794,-1.5798,-1.5797,-1.5811,-1.5792,-1.5804,-1.5808,-1.5811,-1.5818,-1.5721,-1.5811,-1.5811,-1.5811,-1.581,-1.581,0,-1.5843,-1.5839,-1.5849,-1.5853,-1.5863,-1.5839,-1.584,-1.585,-1.5865,-1.5864,-1.5872,-1.5889,-1.59,-1.5888,-1.5897,-1.5911,-1.59,-1.5914,-1.5913,-1.5913,-1.5833,-1.5825,-1.5923,-1.5923,-1.5923,-1.5923,-1.5923,-1.5923,-1.5892,-1.5919,-1.591,-1.5937,-1.5933,-1.595,-1.5953,-1.5956,-1.5955,-1.5975,-1.5985,-1.5977,-1.5972,-1.5982,-1.5992,-1.5988,-1.5994,-1.6012,-1.6005,-1.593,-1.5919,-1.5908,-1.5901,-1.6014,-1.6014,-1.6084,-1.6085,-1.6086]}]]